Tracking 19709 objects as of 17-Jun-2019
HD Live streaming from Space Station
objects crossing your sky now

SL-14 R/B

Track SL-14 R/B now!
10-day predictions


NORAD ID: 17588
Int'l Code: 1987-026G
Perigee: 1,417.5 km
Apogee: 1,478.3 km
Inclination: 82.6 °
Period: 114.7 minutes
Semi major axis: 7818 km
RCS: 5.338 m2 (large)
Launch date: March 13, 1987
Source: Commonwealth of Independent States (former USSR) (CIS)
Launch site: PLESETSK MISSILE AND SPACE COMPLEX (PKMTR)

Note: This is a ROCKET BODY
aabbcc
Your satellite tracking list
Your tracking list is empty




NASA's NSSDC Master Catalog

Two Line Element Set (TLE):
1 17588U 87026G   19167.60152567 +.00000007 +00000-0 -19816-4 0  9995
2 17588 082.5668 159.4058 0038912 121.4705 015.3157 12.55693046478575
Source of the keplerian elements: AFSPC